Regional Weather Roundup
Issued by NWS

Home | Current Version | Previous Version | Text Only | Print | Product List | Glossary On
Versions: 1 2 3 4 5 6 7 8 9 10 11 12 13 14 15 16 17 18 19 20 21 22 23 24 25 26 27 28 29 30 31 32 33 34 35 36 37 38 39 40 41 42 43 44 45 46 47 48 49 50
000
ASUS43 KDTX 180710
RWRMI
MICHIGAN HOURLY REGIONAL WEATHER ROUNDUP
NATIONAL WEATHER SERVICE DETROIT/PONTIAC MI
300 AM EDT SAT APR 18 2015

NOTE: "FAIR" INDICATES FEW OR NO CLOUDS BELOW 12,000 FEET WITH NO
SIGNIFICANT WEATHER AND/OR OBSTRUCTION TO VISIBILITY.

MIZ047>049-052>055-059>063-066>070-074>076-081>083-180800-
SOUTHEAST LOWER MICHIGAN

CITY           SKY/WX    TMP DP  RH WIND       PRES   REMARKS
ADRIAN         CLEAR     51  44  77 CALM      30.02S
ALMA           CLEAR     48  43  82 CALM      29.99S
ANN ARBOR      CLEAR     48  43  82 CALM      30.00S
BAD AXE        CLEAR     42  40  90 CALM      29.96F
DETROIT CITY   CLEAR     50  43  77 CALM      30.00S
DETROIT        CLEAR     52  44  74 CALM      30.00S
FLINT          CLEAR     48  40  73 SW3       29.99F
GROSSE ILE     CLEAR     46  45  93 CALM      29.98S FOG
HILLSDALE      CLEAR     55  41  59 CALM      30.02S
HOWELL         CLEAR     49  39  68 CALM      30.00S

CITY           SKY/WX    TMP DP  RH WIND       PRES   REMARKS
JACKSON        CLEAR     48  41  76 SW5       30.01S
LAMBERTVILLE   CLEAR     50  43  76 CALM      30.01S
LANSING        CLEAR     51  42  71 CALM      30.00F
LAPEER         NOT AVBL
MASON          CLEAR     46  40  81 CALM      30.00S
MONROE         CLEAR     48  46  93 CALM      29.98F
PONTIAC        CLEAR     53  43  68 W3        29.99S
PORT HOPE        N/A     41  38  89 CALM      29.94F
PORT HURON     CLEAR     45  43  93 CALM      29.98F
TRI CITIES     CLEAR     50  41  71 SW5       29.98F
YPSILANTI      CLEAR     52  43  71 W3        30.00S
$$
MIZ043>046-050>051-056>058-064>065-071>073-077>080-180800-
SOUTHWEST LOWER MICHIGAN

CITY           SKY/WX    TMP DP  RH WIND       PRES   REMARKS
BATTLE CREEK   CLEAR     51  42  71 CALM      30.02S
BENTON HARBOR  CLEAR     50  45  83 SE3       30.01R
BIG RAPIDS     CLEAR     44  39  83 CALM      29.98S
COLDWATER      CLEAR     49  43  80 CALM      30.02R
HOLLAND        CLEAR     53  44  71 CALM      30.01S
GRAND RAPIDS   CLEAR     49  41  74 S3        30.00S
KALAMAZOO      CLEAR     50  44  80 S3        30.02R
MARSHALL       CLEAR     46  41  83 CALM      30.01S
MUSKEGON       MOCLDY    46  40  79 CALM      30.00S
$$
MIZ016>042-180800-
NORTHERN LOWER MICHIGAN

CITY           SKY/WX    TMP DP  RH WIND       PRES   REMARKS
ALPENA         CLEAR     36  34  92 CALM      29.96F
BEAVER ISLAND  CLEAR     39  31  75 W5        29.95S
BELLAIRE       CLEAR     40  37  90 CALM      29.98F
CADILLAC       CLEAR     42  37  83 SW3       29.98S
CHARLEVOIX     CLEAR     41  35  78 CALM      29.98F
FRANKFORT      SUNNY     47  35  63 CALM      30.00S
GAYLORD        CLEAR     39  35  86 CALM      29.97F
GRAYLING       CLEAR     36  33  89 CALM      29.98F
HARBOR SPRINGS CLEAR     36  32  85 CALM      29.95F
MANISTEE       CLEAR     39  36  87 CALM      30.00S
OSCODA         MOCLDY    36  33  90 CALM      29.95S
PELLSTON       CLEAR     34  29  82 CALM      29.95F
TRAVERSE CITY  CLEAR     40  37  89 CALM      29.98S
$$
MIZ007>008-015-180800-
EASTERN UPPER MICHIGAN

CITY           SKY/WX    TMP DP  RH WIND       PRES   REMARKS
KINROSS        PTCLDY    43  28  56 SW5       29.91S
MACKINAC ISLAN CLEAR     43  32  66 SW9       29.93F
NEWBERRY       CLEAR     44  32  63 W16G22    29.96R
S. S. MARIE    PTCLDY    38  27  64 NW6       29.93R
$$
MIZ004>006-011>014-085-180800-
CENTRAL UPPER MICHIGAN

CITY           SKY/WX    TMP DP  RH WIND       PRES   REMARKS
MANISTIQUE     CLEAR     44  36  73 NW12      29.99R
ESCANABA       CLEAR     43  32  65 NW6       30.02R
MENOMINEE      CLEAR     39  36  87 CALM      29.98F
SAWYER-GWINN   CLEAR     46  34  61 N21G30    30.06R
$$
MIZ001>003-009>011-084-180800-
WESTERN UPPER MICHIGAN

CITY           SKY/WX    TMP DP  RH WIND       PRES   REMARKS
IRON MOUNTAIN  CLEAR     49  33  54 N10       30.03R
HOUGHTON         N/A     41  32  70 N10G21    30.11R
COPPER HARBOR    N/A     38  33  82 N17       30.10R
IRONWOOD       CLEAR     48  30  49 NE8       30.10R
$$

ABBREVIATIONS USED IN REMARKS
   TC - TEMPERATURE IN CELSIUS
  WCI - WIND CHILL INDEX
   HX - HEAT INDEX
  VSB - VISIBILITY



USA.gov is the U.S. government's official web portal to all federal, state and local government web resources and services.